Погода в Мантурове

Россия / Костромская область     58°19′43″N   44°45′26″E
темп.,
°C
ветер,
м/с
пор.,
м/с
влажн.,
%
обл.,
%
осадки,
мм/ч
давл.,
гПа
погр.,
м
10 апреля, сб
сб1000:00−3ююз25950 0.0 102784
03:00−3ююз25950 0.0 102881
06:00−4ю26945 0.0 1029107
09:00+4ю36780 0.0 1029416
12:00+7ю45635 0.0 10291143
15:00+7ю35615 0.0 10281477
18:00+4ююв26874 0.0 1027121
21:00−1ю25944 0.0 102783
11 апреля, вс
вс1100:00−2ю27962 0.0 1027113
03:00−2ююз28965 0.0 1027127
06:00−1ююз310891 0.0 1027200
09:00+5юз48704 0.0 1028480
12:00+9зюз47635 0.0 1029897
15:00+10зюз366675 0.0 10301344
18:00+5с2495100 0.0 103277
21:00+3ююв1197100 0.0 103411
12 апреля, пн
пн1200:00+3юв1196100 0.0 103511
03:00+3в1197100 0.0 103612
06:00+3вюв1297100 0.0 103746
09:00+6юв138897 0.0 1037113
12:00+12ююв34635 0.0 1036853
15:00+13юв345826 0.0 10351197
18:00+10юв3778100 0.0 1034198
21:00+7юв31089100 0.0 1034300
13 апреля, вт
вт1300:00+5юв31092100 0.0 1033295
03:00+5ююв31095100 0.0 1031282
06:00+6ююв31095100 0.0 1030273
09:00+11ю3777100 0.0 1028378
12:00+17ю485729 0.0 1026860
15:00+18ю485389 0.0 10251428
18:00+15ю41066100 0.0 1024388
21:00+11ю4138099 0.0 1024342
14 апреля, ср
ср1400:00+8ю3118146 0.0 1023222
03:00+7ю21084100 0.0 1023176
06:00+7ююз21080100 0.0 1022192
09:00+14ююз48575 0.0 1021442
12:00+18ююз51044100 0.0 10201134
15:00+18юз51049100 0.0 10191369
18:00+15юз3860100 0.0 1019323
21:00+11ююз287499 0.0 1019144